Total_Precipitation_Accumulation
0.04 0.05 0.04 0.03 0.04 0.04 0.01 0.00 0.00 0.00 0.00 0.00 0.02 0.05 0.07 0.08 0.05 0.01 0.00 0.00 0.00 0.00
0.04 0.04 0.06 0.10 0.07 0.04 0.03 0.04 0.03 0.04 0.01 0.00 0.02 0.07 0.08 0.06 0.04 0.02 0.01 0.01 0.00 0.00
0.01 0.04 0.13 0.09 0.04 0.04 0.06 0.05 0.06 0.06 0.00 0.01 0.01 0.02 0.01 0.02 0.01 0.01 0.01 0.00 0.00 0.00
0.01 0.06 0.08 0.08 0.04 0.06 0.06 0.06 0.05 0.03 0.01 0.01 0.01 0.01 0.01 0.01 0.01 0.01 0.01 0.00 0.00 0.00
0.02 0.04 0.06 0.06 0.08 0.08 0.06 0.04 0.05 0.04 0.04 0.04 0.03 0.03 0.03 0.02 0.02 0.00 0.00 0.00 0.00 0.00
0.01 0.03 0.05 0.10 0.06 0.03 0.03 0.03 0.03 0.04 0.04 0.04 0.06 0.08 0.06 0.05 0.06 0.02 0.00 0.00 0.00 0.00
0.03 0.07 0.09 0.07 0.04 0.02 0.02 0.02 0.02 0.03 0.05 0.06 0.06 0.04 0.04 0.02 0.02 0.02 0.00 0.00 0.00 0.00
0.07 0.11 0.09 0.05 0.03 0.02 0.01 0.00 0.00 0.01 0.01 0.01 0.01 0.01 0.00 0.00 0.00 0.00 0.00 0.00 0.00 0.00
0.08 0.09 0.04 0.05 0.06 0.03 0.01 0.00 0.00 0.00 0.00 0.00 0.00 0.00 0.00 0.00 0.00 0.00 0.00 0.00 0.00 0.00
0.06 0.12 0.18 0.14 0.06 0.01 0.00 0.00 0.00 0.00 0.00 0.00 0.00 0.00 0.00 0.00 0.00 0.00 0.00 0.00 0.00 0.00
0.05 0.13 0.12 0.05 0.01 0.00 0.01 0.01 0.01 0.00 0.00 0.00 0.00 0.00 0.00 0.00 0.00 0.00 0.00 0.00 0.00 0.00
0.03 0.04 0.03 0.04 0.05 0.05 0.04 0.02 0.02 0.00 0.00 0.00 0.00 0.00 0.00 0.00 0.00 0.00 0.00 0.00 0.00 0.00
0.02 0.03 0.04 0.07 0.08 0.06 0.05 0.03 0.02 0.01 0.00 0.00 0.00 0.00 0.00 0.00 0.00 0.00 0.00 0.00 0.00 0.00
0.02 0.02 0.04 0.05 0.04 0.04 0.04 0.03 0.02 0.01 0.00 0.00 0.01 0.00 0.00 0.00 0.00 0.00 0.00 0.00 0.00 0.00